Regional Weather Roundup
Issued by NWS Kansas City/Pleasant Hill, MO

Home | Current Version | Previous Version | Graphics & Text | Print | Product List | Glossary Off
Versions: 1 2 3 4 5 6 7 8 9 10 11 12 13 14 15 16 17 18 19 20 21 22 23 24 25 26 27 28 29 30 31 32 33 34 35 36 37 38 39 40 41 42 43 44 45 46 47 48 49 50

000
ASUS43 KEAX 261010
RWREAX

WEATHER ROUNDUP FOR EASTERN KANSAS AND NORTHWEST MISSOURI
NATIONAL WEATHER SERVICE KANSAS CITY/PLEASANT HILL MO
500 AM CDT TUE MAY 26 2015

KSZ040-057-103>105-MOZ028-029-037-043-261100-
...KANSAS CITY METROPOLITAN AREA...

CITY           SKY/WX    TMP DP  RH WIND       PRES   REMARKS
K.C. INTL      RAIN      60  59  96 NW3       29.76F FOG
K.C. DOWNTOWN  LGT RAIN  62  60  93 CALM      29.77S
LEES SUMMIT    LGT RAIN  60  59  96 W5        29.79R
OLATHE - IXD   LGT RAIN  60  59  96 CALM      29.79S
OLATHE - OJC   LGT RAIN  60  59  96 N3        29.78R
LAWRENCE       LGT RAIN  60  58  92 S3        29.77S

$$

MOZ001>008-011>017-020>025-030>033-038>040-044>046-053-054-261100-
...NORTHERN AND CENTRAL MISSOURI...

CITY           SKY/WX    TMP DP  RH WIND       PRES   REMARKS
ST. JOSEPH     LGT RAIN  61  59  93 CALM      29.75F FOG
MOSBY          RAIN      61  61 100 N3        29.77S
WARRENSBURG    CLOUDY    61  59  94 W3        29.79R
WHITEMAN AFB   DRIZZLE   64  61  91 W9        29.79R
CLINTON        CLOUDY    64  63  94 W8        29.82R
SEDALIA        CLOUDY    67  62  84 S13       29.79S
WARSAW         NOT AVBL
CHILLICOTHE      N/A     62  60  93 N10       29.72F
KIRKSVILLE     LGT RAIN  68  67  96 SE12      29.77R

$$

MOZ041-047>049-056>058-063>065-088>090-097-261100-
...EASTERN AND SOUTHERN MISSOURI...

CITY           SKY/WX    TMP DP  RH WIND       PRES   REMARKS
ST. LOUIS INTL CLOUDY    73  64  73 SE12G22   29.85F
SPIRIT OF STL  CLOUDY    72  64  76 E6        29.81F
COLUMBIA       LGT RAIN  65  63  93 S14G21    29.82R
JEFFERSON CITY LGT RAIN  66  63  90 S9        29.82R
ROLLA          CLOUDY    63  62  97 S8        29.83R
OSAGE BEACH    CLOUDY    64  61  88 S8        29.84R
SPRINGFIELD    CLOUDY    63  59  87 SW9       29.87R
BRANSON        CLOUDY    59  57  94 CALM      29.91R
JOPLIN         CLOUDY    62  59  90 SW6       29.86R
WEST PLAINS    CLOUDY    62  59  90 SW6       29.91R

$$

IAZ060-094-KSZ022-034>040-054-083-096-NEZ052-066-093-261100-
...KANSAS...SOUTHEAST NEBRASKA AND IOWA...

CITY           SKY/WX    TMP DP  RH WIND       PRES   REMARKS
TOPEKA         CLOUDY    60  59  96 SW3       29.78R
MANHATTAN      CLOUDY    60  59  96 W5        29.79S
EMPORIA        CLOUDY    59  58  96 SW5       29.80R
CHANUTE        LGT RAIN  61  60  97 CALM      29.84R FOG
WICHITA        CLOUDY    58  58 100 CALM      29.83R
OMAHA          LGT RAIN  62  59  90 S12       29.77F
LINCOLN        CLOUDY    62  57  83 S12       29.76F
FALLS CITY     LGT RAIN  60  59  96 W8        29.75F
LAMONI         LGT RAIN  62  59  90 SE3       29.79S FOG
DES MOINES     LGT RAIN  62  59  90 NW10      29.77F

$$



USA.gov is the U.S. government's official web portal to all federal, state and local government web resources and services.